Main page
METAR-TAF:

METAR-TAF

Airports :

Larnaca International Airport

Larnaca, Cyprus

latitude: 34-53N, longitude: 033-38E, elevation: 2 m

Current weather observation

The report was made 43 minutes ago, at 15:00 UTC
Wind 12 kt from the North/Northwest, varying between West/Northwest and North
Temperature 27°C
Humidity 39%
Pressure 1013 hPa
Visibility 10 km or more
Few clouds at a height of 2500 ft
Scattered clouds at a height of 5000 ft

METAR: LCLK 281500Z 33012KT 290V350 9999 FEW025 SCT050 27/12 Q1013 NOSIG

Time: 18:43 (15:43 UTC)

Forecast

The report was made 4 hours and 13 minutes ago, at 11:30 UTC
Forecast valid from 28 at 12 UTC to 29 at 12 UTC
Wind 20 kt from the South/Southwest
Visibility 10 km or more
Few clouds at a height of 3000 ft
Becoming
from 28 at 14 UTC to 28 at 16 UTC
Wind 11 kt from the Northwest
Becoming
from 29 at 10 UTC to 29 at 12 UTC
Wind 24 kt from the Southwest

TAF: LCLK 281130Z 2812/2912 21020KT 9999 FEW030 BECMG 2814/2816 31011KT BECMG 2910/2912 22024KT

Weather observations and forecasts of more than 4000 airports (METAR and TAF reports).

The available stations are represented by yellow and red dots on the map.

Hover mouse over dot to see the name of the station.

Then click to see weather observations and forecasts.

To change the map : click on the green buttons with a black cross to zoom in, on the green button with a dash to zoom out, or on the green arrows for adjacent maps.


METAR-TAF: